W5MBG Weather Reports


Display with metric or nautical units.
time (UTC)temp
F
wind
direction
speed
MPH
gust
MPH
rain 1hr
in
rain 24hr
in
rain mn
in
humidity
%
barometer
mb
20260906231510 80 326 0.0 0.0 0.00 0.13 0.13 74 1014.5
20260906231006 80 326 0.0 0.0 0.00 0.13 0.13 77 1014.5
20260906230506 79 326 0.0 0.0 0.00 0.13 0.13 79 1014.4
20260906230016 79 326 0.0 1.0 0.00 0.13 0.13 74 1014.4
20260906225509 78 326 0.0 1.0 0.00 0.13 0.13 78 1014.4
20260906225011 78 326 1.0 1.0 0.00 0.13 0.13 80 1014.5
20260906224524 79 98 0.0 0.0 0.00 0.13 0.13 80 1014.6
20260906224015 79 98 0.0 1.0 0.00 0.13 0.13 78 1014.8
20260906223512 78 98 0.0 1.0 0.00 0.13 0.13 80 1014.8
20260906223031 78 98 0.0 1.0 0.00 0.13 0.13 82 1014.9
20260906222513 78 129 0.0 0.0 0.00 0.13 0.13 81 1015.1
20260906222016 78 129 0.0 0.0 0.00 0.13 0.13 83 1015.2
20260906221530 77 129 0.0 0.0 0.00 0.13 0.13 81 1015.2
20260906221016 77 129 0.0 0.0 0.00 0.13 0.13 84 1015.3
20260906220504 77 129 0.0 0.0 0.00 0.13 0.13 83 1015.4
20260906220012 76 129 0.0 0.0 0.00 0.13 0.13 82 1015.4
20260906215508 77 129 0.0 0.0 0.00 0.13 0.13 85 1015.5
20260906215008 77 129 0.0 0.0 0.00 0.13 0.13 84 1015.5
20260906214523 77 129 0.0 0.0 0.01 0.13 0.13 86 1015.5
20260906214011 76 129 0.0 1.0 0.01 0.13 0.13 84 1015.5
20260906213512 76 129 0.0 2.0 0.02 0.13 0.13 83 1015.6
20260906213029 75 127 0.0 2.0 0.02 0.13 0.13 85 1015.7
20260906212515 75 158 0.0 2.0 0.02 0.13 0.13 84 1015.7
20260906212014 74 172 0.0 2.0 0.03 0.13 0.13 85 1015.8
20260906211530 74 85 0.0 2.0 0.04 0.13 0.13 87 1015.9
20260906211015 74 156 1.0 4.0 0.07 0.13 0.13 87 1016.0
20260906210516 74 147 0.0 4.0 0.08 0.13 0.13 87 1016.1
20260906210032 73 129 0.0 3.0 0.09 0.13 0.13 87 1016.1
20260906205519 73 150 1.0 3.0 0.11 0.13 0.13 87 1016.2
20260906205010 73 134 0.0 3.0 0.12 0.13 0.13 88 1016.3
20260906204515 73 237 0.0 4.0 0.12 0.12 0.12 87 1016.4
20260906204006 73 166 2.0 4.0 0.12 0.12 0.12 87 1016.6
20260906203511 73 162 2.0 4.0 0.11 0.11 0.11 87 1016.6
20260906203023 73 179 1.0 3.0 0.11 0.11 0.11 88 1016.7
20260906202511 73 148 0.0 4.0 0.11 0.11 0.11 87 1016.7
20260906202013 73 256 1.0 5.0 0.10 0.10 0.10 87 1016.7
20260906201527 74 141 2.0 6.0 0.09 0.09 0.09 84 1016.6
20260906201015 74 136 3.0 6.0 0.06 0.06 0.06 84 1016.7
20260906200515 74 140 0.0 5.0 0.05 0.05 0.05 85 1016.6
20260906200030 75 160 1.0 7.0 0.04 0.04 0.04 85 1016.6
20260906195516 75 68 2.0 7.0 0.02 0.02 0.02 84 1016.7
20260906195018 76 41 2.0 7.0 0.01 0.01 0.01 82 1016.5
20260906194533 78 108 3.0 7.0 0.00 0.00 0.00 80 1016.4
20260906194015 79 64 2.0 8.0 0.00 0.00 0.00 75 1015.9
20260906193506 80 82 3.0 9.0 0.00 0.00 0.00 72 1015.9
20260906193017 82 57 3.0 9.0 0.00 0.00 0.00 68 1015.9
20260906192510 83 86 3.0 9.0 0.00 0.00 0.00 66 1015.8
20260906192010 84 73 3.0 7.0 0.00 0.00 0.00 63 1015.9
20260906191528 85 79 3.0 7.0 0.00 0.00 0.00 62 1016.0
20260906191010 85 110 0.0 7.0 0.00 0.00 0.00 63 1016.0
20260906190519 85 62 2.0 11.0 0.00 0.00 0.00 62 1016.1
20260906190031 85 356 5.0 11.0 0.00 0.00 0.00 60 1016.1
20260906185513 86 31 6.0 11.0 0.00 0.00 0.00 58 1016.1
20260906185016 87 21 6.0 11.0 0.00 0.00 0.00 57 1016.1
20260906184533 88 5 4.0 11.0 0.00 0.00 0.00 55 1016.2
20260906184016 89 95 2.0 7.0 0.00 0.00 0.00 51 1016.3
20260906183514 89 144 3.0 8.0 0.00 0.00 0.00 51 1016.3
20260906183036 89 119 3.0 8.0 0.00 0.00 0.00 50 1016.4
20260906182519 89 101 4.0 8.0 0.00 0.00 0.00 51 1016.4
20260906182006 90 134 2.0 6.0 0.00 0.00 0.00 51 1016.4
20260906181517 89 172 2.0 6.0 0.00 0.00 0.00 53 1016.4
20260906181010 88 129 1.0 3.0 0.00 0.00 0.00 53 1016.6
20260906180513 88 301 1.0 3.0 0.00 0.00 0.00 53 1016.6
20260906180051 88 303 1.0 3.0 0.00 0.00 0.00 54 1016.7
20260906175515 89 323 1.0 3.0 0.00 0.00 0.00 53 1016.8
20260906175013 89 323 1.0 5.0 0.00 0.00 0.00 53 1017.0
20260906174534 89 104 2.0 6.0 0.00 0.00 0.00 52 1017.0
20260906174014 89 162 2.0 6.0 0.00 0.00 0.00 52 1017.1
20260906173514 89 152 2.0 5.0 0.00 0.00 0.00 52 1017.1
20260906173031 88 129 0.0 6.0 0.00 0.00 0.00 52 1017.3
20260906172513 89 291 3.0 6.0 0.00 0.00 0.00 52 1017.3
20260906172019 91 148 3.0 6.0 0.00 0.00 0.00 50 1017.3
20260906171534 91 232 1.0 3.0 0.00 0.00 0.00 49 1017.4
20260906171018 90 355 2.0 7.0 0.00 0.00 0.00 51 1017.4
20260906170511 90 91 1.0 7.0 0.00 0.00 0.00 50 1017.5
20260906170023 89 284 1.0 6.0 0.00 0.00 0.00 52 1017.4
20260906165512 89 152 3.0 8.0 0.00 0.00 0.00 52 1017.5
20260906165011 89 169 2.0 8.0 0.00 0.00 0.00 53 1017.5
20260906164526 89 228 2.0 8.0 0.00 0.00 0.00 53 1017.5
20260906164010 89 148 2.0 5.0 0.00 0.00 0.00 53 1017.5
20260906163514 89 124 2.0 6.0 0.00 0.00 0.00 53 1017.5
20260906163028 88 73 1.0 6.0 0.00 0.00 0.00 56 1017.5
20260906162517 88 181 3.0 6.0 0.00 0.00 0.00 56 1017.6
20260906162016 87 144 2.0 11.0 0.00 0.00 0.00 58 1017.6
20260906161533 87 157 2.0 11.0 0.00 0.00 0.00 58 1017.6
20260906161018 88 139 2.0 4.0 0.00 0.00 0.00 57 1017.5
20260906160517 88 207 2.0 7.0 0.00 0.00 0.00 57 1017.6
20260906160038 88 208 2.0 7.0 0.00 0.00 0.00 59 1017.6
20260906155520 87 250 1.0 6.0 0.00 0.00 0.00 59 1017.6
20260906155015 87 233 1.0 6.0 0.00 0.00 0.00 59 1017.5
20260906154526 87 113 2.0 6.0 0.00 0.00 0.00 60 1017.5
20260906154012 86 241 2.0 6.0 0.00 0.00 0.00 62 1017.4
20260906153514 85 266 2.0 6.0 0.00 0.00 0.00 63 1017.4
20260906153027 85 141 1.0 6.0 0.00 0.00 0.00 64 1017.4
20260906152512 84 330 1.0 6.0 0.00 0.00 0.00 64 1017.3
20260906152002 84 251 3.0 6.0 0.00 0.00 0.00 64 1017.2
20260906151506 84 193 3.0 6.0 0.00 0.00 0.00 64 1017.2
20260906151005 84 330 3.0 7.0 0.00 0.00 0.00 65 1017.3
20260906150507 83 158 3.0 7.0 0.00 0.00 0.00 67 1017.2
20260906150022 82 205 2.0 5.0 0.00 0.00 0.00 68 1017.2
20260906145506 83 156 3.0 5.0 0.00 0.00 0.00 67 1017.3
20260906145006 82 207 3.0 5.0 0.00 0.00 0.00 68 1017.2
20260906144521 82 82 1.0 4.0 0.00 0.00 0.00 69 1017.2
20260906144010 82 165 2.0 3.0 0.00 0.00 0.00 69 1017.2
20260906143510 81 108 2.0 8.0 0.00 0.00 0.00 70 1017.1
20260906143032 81 200 1.0 8.0 0.00 0.00 0.00 71 1017.0
20260906142509 81 114 3.0 7.0 0.00 0.00 0.00 71 1017.0
20260906142015 81 159 2.0 4.0 0.00 0.00 0.00 71 1017.0
20260906141503 80 207 0.0 6.0 0.00 0.00 0.00 73 1017.0
20260906141002 80 165 2.0 6.0 0.00 0.00 0.00 73 1017.0
20260906140504 80 146 3.0 6.0 0.00 0.00 0.00 73 1017.0
20260906140011 80 150 3.0 5.0 0.00 0.00 0.00 73 1017.0
20260906135506 80 159 3.0 5.0 0.00 0.00 0.00 72 1017.0
20260906135006 80 13 1.0 4.0 0.00 0.00 0.00 73 1016.8
20260906134512 80 231 1.0 4.0 0.00 0.00 0.00 73 1016.8
20260906134006 80 311 1.0 4.0 0.00 0.00 0.00 73 1016.6
20260906133509 80 186 1.0 4.0 0.00 0.00 0.00 73 1016.5
20260906133020 80 145 1.0 3.0 0.00 0.00 0.00 73 1016.5
20260906132513 80 244 1.0 3.0 0.00 0.00 0.00 73 1016.4
20260906132012 79 184 0.0 1.0 0.00 0.00 0.00 74 1016.5
20260906131539 79 150 0.0 1.0 0.00 0.00 0.00 74 1016.4
20260906131011 78 189 0.0 1.0 0.00 0.00 0.00 76 1016.4
20260906130513 78 191 0.0 1.0 0.00 0.00 0.00 77 1016.3
20260906130007 77 200 0.0 0.0 0.00 0.00 0.00 78 1016.3
20260906125507 76 203 0.0 0.0 0.00 0.00 0.00 80 1016.2
20260906125002 75 203 0.0 0.0 0.00 0.00 0.00 81 1016.1
20260906124508 74 203 0.0 0.0 0.00 0.00 0.00 83 1016.0
20260906124004 73 207 0.0 0.0 0.00 0.00 0.00 85 1015.9
20260906123507 73 207 0.0 0.0 0.00 0.00 0.00 85 1015.8
20260906123016 73 207 0.0 0.0 0.00 0.00 0.00 85 1015.8
20260906122511 73 207 0.0 0.0 0.00 0.00 0.00 85 1015.8
20260906122009 73 207 0.0 0.0 0.00 0.00 0.00 85 1015.8
20260906121527 73 207 0.0 0.0 0.00 0.00 0.00 85 1015.7
20260906121011 73 207 0.0 0.0 0.00 0.00 0.00 85 1015.6
20260906120514 73 207 0.0 0.0 0.00 0.00 0.00 85 1015.6
20260906120032 73 207 0.0 0.0 0.00 0.00 0.00 85 1015.5
20260906115515 73 207 0.0 0.0 0.00 0.00 0.00 85 1015.4
20260906115014 73 207 0.0 0.0 0.00 0.00 0.00 84 1015.4
20260906114510 73 207 0.0 0.0 0.00 0.00 0.00 84 1015.4
20260906114003 73 226 0.0 0.0 0.00 0.00 0.00 84 1015.4
20260906113507 73 226 0.0 0.0 0.00 0.00 0.00 84 1015.3
20260906113021 72 226 0.0 0.0 0.00 0.00 0.00 84 1015.1
20260906112508 72 226 0.0 0.0 0.00 0.00 0.00 84 1015.0
20260906112008 73 226 0.0 0.0 0.00 0.00 0.00 84 1014.9
20260906111522 73 226 0.0 0.0 0.00 0.00 0.00 84 1014.9
20260906111009 73 226 0.0 0.0 0.00 0.00 0.00 84 1014.9
20260906110510 73 226 0.0 0.0 0.00 0.00 0.00 84 1014.9
20260906110029 73 226 0.0 0.0 0.00 0.00 0.00 83 1015.0
20260906105511 73 226 0.0 0.0 0.00 0.00 0.00 83 1014.9
20260906105016 73 226 0.0 0.0 0.00 0.00 0.00 83 1015.0
20260906104535 73 226 0.0 0.0 0.00 0.00 0.00 83 1014.9
20260906104016 73 226 0.0 0.0 0.00 0.00 0.00 83 1014.9
20260906103516 73 226 0.0 0.0 0.00 0.00 0.00 82 1014.9
20260906103012 73 226 0.0 0.0 0.00 0.00 0.00 82 1014.8
20260906102504 73 226 0.0 0.0 0.00 0.00 0.00 82 1014.9
20260906102004 73 226 0.0 0.0 0.00 0.00 0.00 82 1014.8
20260906101516 73 226 0.0 0.0 0.00 0.00 0.00 83 1014.7
20260906101009 73 226 0.0 0.0 0.00 0.00 0.00 83 1014.6
20260906100513 73 334 0.0 0.0 0.00 0.00 0.00 83 1014.6
20260906100022 73 334 0.0 0.0 0.00 0.00 0.00 83 1014.7
20260906095509 73 334 0.0 0.0 0.00 0.00 0.00 83 1014.6
20260906095012 73 334 0.0 0.0 0.00 0.00 0.00 83 1014.6
20260906094536 73 334 0.0 0.0 0.00 0.00 0.00 83 1014.6
20260906094012 73 334 0.0 0.0 0.00 0.00 0.00 83 1014.8
20260906093518 73 334 0.0 0.0 0.00 0.00 0.00 82 1014.9
20260906093036 73 334 0.0 0.0 0.00 0.00 0.00 82 1014.8
20260906092513 73 334 0.0 0.0 0.00 0.00 0.00 82 1014.9
20260906092018 73 334 0.0 1.0 0.00 0.00 0.00 82 1015.0
20260906091511 73 334 0.0 1.0 0.00 0.00 0.00 82 1015.0
20260906091007 73 334 0.0 1.0 0.00 0.00 0.00 81 1015.0
20260906090507 73 334 0.0 0.0 0.00 0.00 0.00 81 1015.0
20260906090017 74 335 0.0 0.0 0.00 0.00 0.00 80 1015.0
20260906085509 74 334 0.0 0.0 0.00 0.00 0.00 80 1015.0
20260906085010 74 335 0.0 2.0 0.00 0.00 0.00 79 1015.0
20260906084542 74 338 0.0 2.0 0.00 0.00 0.00 79 1015.0
20260906084010 74 110 0.0 0.0 0.00 0.00 0.00 79 1015.1
20260906083514 74 101 0.0 3.0 0.00 0.00 0.00 79 1015.1
20260906083035 74 158 0.0 3.0 0.00 0.00 0.00 78 1015.0
20260906082513 75 228 0.0 3.0 0.00 0.00 0.00 77 1015.0
20260906082016 75 252 0.0 3.0 0.00 0.00 0.00 77 1015.1
20260906081531 75 233 0.0 4.0 0.00 0.00 0.00 76 1015.1
20260906081019 75 146 0.0 4.0 0.00 0.00 0.00 76 1015.2
20260906080518 76 145 2.0 5.0 0.00 0.00 0.00 76 1015.3
20260906080024 76 110 1.0 5.0 0.00 0.00 0.00 76 1015.3
20260906075510 75 163 2.0 3.0 0.00 0.00 0.00 75 1015.3
20260906075006 76 143 1.0 3.0 0.00 0.00 0.00 75 1015.4
20260906074524 76 244 1.0 5.0 0.00 0.00 0.00 74 1015.5
20260906074010 76 247 1.0 5.0 0.00 0.00 0.00 74 1015.7
20260906073512 76 134 2.0 5.0 0.00 0.00 0.00 73 1015.8
20260906073037 76 233 1.0 8.0 0.00 0.00 0.00 73 1015.8
20260906072512 77 177 3.0 8.0 0.00 0.00 0.00 73 1015.9
20260906072014 77 229 2.0 6.0 0.00 0.00 0.00 73 1016.0
20260906071531 77 240 2.0 6.0 0.00 0.00 0.00 73 1016.1
20260906071016 77 174 2.0 4.0 0.00 0.00 0.00 73 1016.1
20260906070515 77 162 2.0 4.0 0.00 0.00 0.00 72 1015.9
20260906070034 77 237 2.0 4.0 0.00 0.00 0.00 72 1015.9
20260906065518 77 163 1.0 4.0 0.00 0.00 0.00 72 1015.9
20260906065018 77 138 0.0 5.0 0.00 0.00 0.00 72 1015.9
20260906064517 77 151 1.0 5.0 0.00 0.00 0.00 73 1015.9
20260906064006 77 171 2.0 5.0 0.00 0.00 0.00 73 1016.0
20260906063507 78 155 2.0 5.0 0.00 0.00 0.00 73 1016.0
20260906063027 78 214 2.0 4.0 0.00 0.00 0.00 74 1016.0
20260906062510 78 214 2.0 4.0 0.00 0.00 0.00 74 1016.0
20260906062014 78 169 1.0 4.0 0.00 0.00 0.00 74 1016.1
20260906061528 78 158 1.0 4.0 0.00 0.00 0.00 73 1016.1
20260906061015 78 219 0.0 4.0 0.00 0.00 0.00 73 1016.2
20260906060517 78 231 0.0 4.0 0.00 0.00 0.00 73 1016.3
20260906060036 78 164 1.0 4.0 0.00 0.00 0.00 72 1016.4
20260906055517 78 214 1.0 6.0 0.00 0.00 0.00 72 1016.4
20260906055016 79 121 1.0 6.0 0.00 0.00 0.00 71 1016.4
20260906054534 79 153 1.0 5.0 0.00 0.00 0.00 71 1016.3
20260906054018 79 145 2.0 5.0 0.00 0.00 0.00 70 1016.4
20260906053520 79 131 0.0 5.0 0.00 0.00 0.00 69 1016.4
20260906053020 79 187 1.0 8.0 0.00 0.00 0.00 68 1016.5
20260906052510 79 170 2.0 8.0 0.00 0.00 0.00 68 1016.4
20260906052010 79 149 1.0 6.0 0.00 0.00 0.00 67 1016.3
20260906051525 79 194 2.0 6.0 0.00 0.00 0.00 67 1016.3
20260906051014 79 153 2.0 6.0 0.00 0.00 0.00 66 1016.3
20260906050511 79 153 2.0 5.0 0.00 0.00 0.00 65 1016.3
20260906050033 79 203 2.0 5.0 0.00 0.00 0.00 65 1016.3
20260906045514 80 165 1.0 5.0 0.00 0.00 0.00 64 1016.2
20260906045016 79 160 2.0 5.0 0.00 0.00 0.00 63 1016.3
20260906044532 79 161 1.0 3.0 0.00 0.00 0.00 63 1016.3
20260906044016 80 131 0.0 3.0 0.00 0.00 0.00 62 1016.3
20260906043519 80 106 0.0 3.0 0.00 0.00 0.00 62 1016.3
20260906043034 80 109 0.0 2.0 0.00 0.00 0.00 61 1016.3
20260906042520 80 132 0.0 2.0 0.00 0.00 0.00 61 1016.3
20260906042007 80 156 0.0 2.0 0.00 0.00 0.00 61 1016.3
20260906041523 80 118 1.0 2.0 0.00 0.00 0.00 60 1016.2
20260906041016 80 134 0.0 3.0 0.00 0.00 0.00 59 1016.2
20260906040513 81 175 1.0 3.0 0.00 0.00 0.00 59 1016.1
20260906040031 81 135 1.0 3.0 0.00 0.00 0.00 58 1016.1
20260906035514 82 115 0.0 3.0 0.00 0.00 0.00 57 1016.0
20260906035014 82 105 2.0 3.0 0.00 0.00 0.00 57 1015.9
20260906034542 81 106 0.0 2.0 0.00 0.00 0.00 58 1015.8
20260906034015 81 103 1.0 2.0 0.00 0.00 0.00 58 1015.8
20260906033513 81 130 0.0 0.0 0.00 0.00 0.00 58 1015.8
20260906033035 81 139 0.0 0.0 0.00 0.00 0.00 58 1015.6
20260906032516 81 139 0.0 0.0 0.00 0.00 0.00 58 1015.5
20260906032016 81 139 0.0 0.0 0.00 0.00 0.00 58 1015.4
20260906031534 81 139 0.0 0.0 0.00 0.00 0.00 58 1015.3
20260906031016 81 139 0.0 0.0 0.00 0.00 0.00 58 1015.4
20260906030510 81 139 0.0 0.0 0.00 0.00 0.00 57 1015.3
20260906030027 81 139 0.0 0.0 0.00 0.00 0.00 57 1015.1
20260906025513 82 139 0.0 0.0 0.00 0.00 0.00 56 1015.0
20260906025016 82 139 0.0 1.0 0.00 0.00 0.00 56 1015.0
20260906024529 82 139 0.0 1.0 0.00 0.00 0.00 56 1014.9
20260906024016 81 139 0.0 1.0 0.00 0.00 0.00 56 1014.9
20260906023516 82 139 0.0 0.0 0.00 0.00 0.00 56 1014.7
20260906023030 82 139 0.0 0.0 0.00 0.00 0.00 56 1014.6
20260906022514 82 139 0.0 1.0 0.00 0.00 0.00 55 1014.5
20260906022019 83 139 0.0 1.0 0.00 0.00 0.00 55 1014.4
20260906021531 83 139 0.0 1.0 0.00 0.00 0.00 54 1014.3
20260906021018 83 128 0.0 1.0 0.00 0.00 0.00 54 1014.3
20260906020518 83 131 0.0 0.0 0.00 0.00 0.00 54 1014.3
20260906020044 84 131 0.0 0.0 0.00 0.00 0.00 53 1014.3
20260906015518 84 129 0.0 0.0 0.00 0.00 0.00 53 1014.2
20260906015011 84 129 0.0 2.0 0.00 0.00 0.00 53 1014.1
20260906014540 85 129 0.0 2.0 0.00 0.00 0.00 53 1014.1
20260906014018 85 127 0.0 2.0 0.00 0.00 0.00 52 1014.0
20260906013514 85 115 0.0 2.0 0.00 0.00 0.00 52 1014.1
20260906013033 85 111 0.0 3.0 0.00 0.00 0.00 52 1014.0
20260906012514 86 131 1.0 3.0 0.00 0.00 0.00 52 1013.9
20260906012017 86 96 1.0 3.0 0.00 0.00 0.00 51 1013.9
20260906011540 86 120 1.0 6.0 0.00 0.00 0.00 51 1013.9
20260906011018 86 134 2.0 6.0 0.00 0.00 0.00 51 1013.8
20260906010516 86 110 1.0 6.0 0.00 0.00 0.00 51 1013.8
20260906010032 87 117 2.0 5.0 0.00 0.00 0.00 51 1013.8
20260906005515 87 104 1.0 5.0 0.00 0.00 0.00 50 1013.8
20260906005018 87 100 1.0 5.0 0.00 0.00 0.00 50 1013.7
20260906004538 87 107 2.0 5.0 0.00 0.00 0.00 50 1013.8
20260906004015 88 179 2.0 6.0 0.00 0.00 0.00 50 1013.8
20260906003512 88 108 2.0 7.0 0.00 0.00 0.00 50 1013.8
20260906003043 88 132 3.0 10.0 0.00 0.00 0.00 49 1013.7
20260906002514 88 94 4.0 10.0 0.00 0.00 0.00 49 1013.7
20260906002018 89 124 3.0 8.0 0.00 0.00 0.00 47 1013.7
20260906001531 89 225 1.0 7.0 0.00 0.00 0.00 48 1013.6
20260906001016 89 92 3.0 7.0 0.00 0.00 0.00 47 1013.6
20260906000520 89 139 3.0 9.0 0.00 0.00 0.00 47 1013.6
20260906000037 89 146 2.0 9.0 0.00 0.00 0.00 47 1013.6
20260905235515 89 114 1.0 7.0 0.00 0.00 0.00 47 1013.6
20260905235017 89 114 4.0 7.0 0.00 0.00 0.00 47 1013.6
20260905234517 90 137 2.0 7.0 0.00 0.00 0.00 47 1013.6
20260905234009 90 124 4.0 8.0 0.00 0.00 0.00 47 1013.7
20260905233510 90 81 3.0 8.0 0.00 0.00 0.00 47 1013.7
20260905233025 91 99 3.0 11.0 0.00 0.00 0.00 46 1013.7
20260905232516 91 116 4.0 11.0 0.00 0.00 0.00 47 1013.6
20260905232013 91 103 4.0 11.0 0.00 0.00 0.00 46 1013.7